This is the latest recevied weather packets stored in our database for station/object W8AN. If no packets are shown the sender has not sent any weather packets the latest 10 day(s).
| Time | Temp. | Humidity | Pressure | Rain* | Wind** | Luminosity | Snow |
|---|---|---|---|---|---|---|---|
| 1777936234 | 23.89° C | 41% | 4256.3 hPa | 0 mm | - | 98 W/m² | - |
| 1777935930 | 23.89° C | 41% | 4256.3 hPa | 0 mm | - | 110 W/m² | - |
| 1777935629 | 23.89° C | 41% | 4256.1 hPa | 0 mm | - | 119 W/m² | - |
| 1777935326 | 23.89° C | 41% | 4256 hPa | 0 mm | - | 131 W/m² | - |
| 1777935023 | 23.89° C | 42% | 4256 hPa | 0 mm | - | 115 W/m² | - |
| 1777934720 | 23.89° C | 41% | 4256.2 hPa | 0 mm | - | 137 W/m² | - |
| 1777934417 | 23.89° C | 42% | 4256.4 hPa | 0 mm | - | 177 W/m² | - |
| 1777934113 | 24.44° C | 40% | 4256.1 hPa | 0 mm | - | 188 W/m² | - |
| 1777933809 | 23.89° C | 41% | 4256.1 hPa | 0 mm | - | 202 W/m² | - |
| 1777933506 | 23.89° C | 41% | 4256.2 hPa | 0 mm | - | 213 W/m² | - |
| 1777933204 | 24.44° C | 41% | 4256.1 hPa | 0 mm | - | 235 W/m² | - |
| 1777932901 | 24.44° C | 42% | 4255.9 hPa | 0 mm | - | 108 W/m² | - |
| 1777932598 | 24.44° C | 40% | 4256.1 hPa | 0 mm | - | 319 W/m² | - |
| 1777932294 | 24.44° C | 40% | 4256.2 hPa | 0 mm | - | 114 W/m² | - |
| 1777931991 | 25° C | 41% | 4256.2 hPa | 0 mm | - | 320 W/m² | - |
| 1777931688 | 25° C | 40% | 4256.3 hPa | 0 mm | - | 358 W/m² | - |
| 1777931384 | 24.44° C | 41% | 4256.1 hPa | 0 mm | - | 355 W/m² | - |
| 1777931081 | 24.44° C | 42% | 4256.1 hPa | 0 mm | - | 365 W/m² | - |
| 1777930778 | 24.44° C | 45% | 4256.3 hPa | 0 mm | - | 369 W/m² | - |
| 1777930473 | 23.89° C | 44% | 4256.4 hPa | 0 mm | - | 447 W/m² | - |
| 1777930171 | 23.89° C | 46% | 4256.4 hPa | 0 mm | - | 477 W/m² | - |
| 1777929867 | 23.89° C | 45% | 4256.5 hPa | 0 mm | - | 153 W/m² | - |
| 1777929565 | 24.44° C | 44% | 4256.2 hPa | 0 mm | - | 433 W/m² | - |
| 1777929261 | 23.89° C | 44% | 4256.4 hPa | 0 mm | - | 493 W/m² | - |
| 1777928958 | 24.44° C | 45% | 4256.6 hPa | 0 mm | - | 452 W/m² | - |
* Rain latest hour (hover to see other rain measurements)
** Current wind speed in m/s (hover to see current wind gust speed)